Location: Astronomy Club of Akron Observatory
(40.9700°N, 81.5606°W)
Time: 10:45:39
(UTC-04:00)

ISS - Pass Details

Date: 21 July 2018
Orbit: 402 x 408 km, 51.6° (Epoch: 20 July)

Event Time Altitude Azimuth Distance (km) Brightness Sun altitude
Rises 04:46:19 0° 303° (WNW) 2,331 -0.1 -13.9°
Reaches altitude 10° 04:48:26 10° 299° (WNW) 1,468 -1.2 -13.6°
Maximum altitude 04:51:40 55° 220° (SW) 491 -3.8 -13.2°
Drops below altitude 10° 04:54:53 10° 141° (SE) 1,461 -1.0 -12.7°
Sets 04:56:58 0° 137° (SE) 2,318 0.0 -12.4°
